Wind_Speed
59 57 56 53 47 44 36 36 36 45 49 42 37 38 40 44 35 41 40 39 42 44 46 48 51 45 43
57 54 56 49 47 45 40 39 40 45 50 46 44 42 38 39 41 39 39 42 42 43 47 50 46 42 39
57 54 52 54 52 50 45 45 47 49 50 39 47 44 41 39 40 39 41 42 40 43 46 50 42 39 36
55 57 55 61 53 50 49 50 50 50 47 41 44 44 37 41 38 43 38 40 40 43 49 43 39 36 34
54 53 57 54 66 54 50 53 54 53 46 48 43 42 40 39 42 39 34 39 41 43 44 39 36 34 32
55 55 53 59 48 61 49 56 61 47 46 51 48 46 35 38 41 36 35 37 39 42 38 36 33 32 30
57 56 55 51 54 50 57 58 43 52 43 48 44 45 42 36 45 37 30 34 39 36 34 32 31 29 26
53 56 55 53 49 53 58 47 54 45 41 46 40 38 36 38 38 32 30 35 35 32 30 29 27 24 25
48 50 50 49 51 45 51 51 54 56 42 38 37 36 40 40 36 29 31 32 31 27 27 26 24 24 25
45 45 39 42 47 52 51 56 49 41 38 37 38 33 34 34 26 26 29 29 26 25 24 23 24 26 26
40 37 35 34 35 41 44 40 35 36 41 37 45 33 28 23 21 26 26 26 23 23 22 23 25 28 26
39 36 33 36 39 34 35 35 29 33 30 35 27 22 18 19 22 25 24 23 20 21 23 25 27 28 25
35 33 33 33 32 29 29 28 26 19 19 18 15 14 17 19 21 22 21 20 21 23 24 26 26 25 22
36 32 27 21 19 20 13 12 17 16 14 11 12 14 15 15 16 19 18 21 23 25 24 25 23 22 20
35 30 26 16 14 14 13 7 8 10 8 8 9 11 12 12 14 17 20 21 22 24 21 20 21 18 19
24 24 22 18 12 14 13 11 10 6 5 5 9 9 11 12 15 19 21 21 22 20 20 19 19 22 21
19 17 17 12 8 8 11 9 4 4 4 6 7 7 10 15 17 19 18 17 19 20 22 22 18 22 24
Wind_Direction
286 285 283 280 274 274 268 267 269 266 263 247 253 261 262 266 265 270 274 278 280 283 290 298 302 296 293
284 284 280 280 272 268 266 265 270 270 268 263 243 256 257 264 267 270 274 277 279 285 292 302 298 293 290
279 280 279 279 274 268 266 268 273 268 269 279 239 257 259 260 263 269 273 277 282 289 295 299 292 290 287
279 279 283 274 275 272 269 265 270 275 279 264 252 240 249 257 255 265 269 279 286 289 296 292 289 287 286
278 280 274 275 285 277 285 271 266 271 278 258 258 254 240 251 259 259 276 280 285 290 294 289 288 285 284
278 276 278 277 290 283 291 274 263 264 272 252 264 250 241 248 259 260 269 281 287 293 289 287 284 284 284
277 278 285 279 282 285 277 283 274 266 279 254 262 253 237 244 256 260 279 283 289 287 284 282 281 283 278
274 276 277 282 277 279 277 286 284 270 264 253 252 242 246 252 262 266 277 286 286 282 281 281 281 278 280
276 277 274 277 274 266 272 273 284 281 266 243 252 249 250 252 259 273 281 284 280 281 282 279 277 281 284
274 274 279 274 266 265 273 279 269 268 262 243 251 244 251 257 266 276 280 277 280 282 277 276 282 285 284
275 279 287 271 267 264 274 272 268 269 265 248 251 248 249 259 276 278 275 277 279 274 274 282 285 285 286
278 279 289 274 269 273 274 271 267 265 247 243 248 248 255 271 274 271 270 273 271 272 279 284 284 284 288
281 275 279 274 275 289 277 264 261 224 231 228 234 255 265 264 264 267 271 269 270 274 280 283 283 282 278
280 275 280 285 275 280 261 247 234 249 212 229 248 255 256 257 263 267 269 274 277 282 285 282 278 270 268
277 261 276 282 295 253 230 249 201 196 226 247 256 256 259 266 267 270 275 279 284 283 280 275 276 267 266
267 265 269 280 273 231 234 185 185 232 255 263 258 267 276 273 269 276 286 288 285 284 285 278 269 267 259
268 273 273 262 203 183 182 178 202 230 237 249 267 278 277 283 293 295 295 295 291 288 283 280 266 260 261
Height
2934 2934 2930 2929 2928 2929 2927 2927 2925 2924 2922 2922 2922 2924 2926 2926 2926 2925 2924 2922 2920 2917 2914 2910 2904 2899 2895
2919 2917 2915 2913 2912 2911 2912 2911 2911 2910 2907 2906 2908 2909 2911 2913 2913 2913 2911 2910 2907 2904 2901 2897 2892 2888 2884
2901 2903 2899 2896 2895 2896 2897 2897 2896 2896 2889 2889 2893 2893 2898 2899 2900 2901 2900 2898 2895 2891 2888 2885 2881 2877 2873
2888 2887 2885 2878 2880 2879 2880 2881 2879 2880 2879 2874 2878 2880 2883 2885 2886 2886 2885 2885 2883 2880 2878 2873 2869 2866 2862
2875 2873 2871 2858 2861 2858 2865 2866 2865 2864 2863 2861 2865 2867 2868 2872 2871 2871 2872 2873 2870 2868 2864 2860 2857 2854 2852
2860 2858 2857 2856 2843 2849 2851 2846 2844 2851 2849 2849 2850 2850 2853 2854 2857 2857 2859 2860 2859 2855 2852 2848 2845 2843 2841
2845 2844 2843 2844 2841 2835 2836 2835 2832 2835 2833 2834 2836 2836 2839 2842 2845 2846 2846 2847 2846 2843 2840 2837 2835 2834 2832
2833 2830 2829 2829 2826 2824 2824 2819 2816 2821 2818 2819 2823 2825 2826 2831 2834 2833 2835 2835 2833 2830 2828 2826 2825 2824 2823
2816 2813 2812 2814 2815 2812 2810 2809 2808 2806 2807 2808 2811 2814 2817 2820 2821 2823 2824 2822 2821 2819 2817 2816 2815 2814 2813
2801 2798 2798 2797 2799 2797 2796 2795 2793 2792 2796 2798 2800 2803 2806 2810 2811 2812 2812 2811 2809 2808 2807 2806 2805 2804 2804
2785 2784 2782 2782 2782 2783 2783 2780 2779 2781 2783 2786 2788 2793 2798 2800 2801 2801 2801 2799 2799 2798 2798 2797 2796 2794 2795
2772 2771 2770 2770 2770 2770 2769 2769 2769 2771 2772 2777 2782 2787 2789 2790 2791 2791 2791 2790 2790 2790 2788 2787 2787 2786 2784
2761 2760 2759 2758 2759 2757 2756 2758 2761 2764 2769 2773 2777 2779 2781 2782 2783 2782 2782 2781 2781 2780 2780 2779 2778 2776 2776
2753 2751 2749 2749 2749 2750 2751 2753 2757 2761 2766 2770 2772 2773 2774 2775 2775 2774 2774 2774 2772 2771 2772 2771 2769 2768 2768
2745 2743 2742 2743 2743 2745 2748 2752 2756 2760 2763 2765 2766 2766 2767 2768 2768 2768 2768 2767 2765 2763 2763 2762 2760 2759 2760
2736 2736 2737 2738 2738 2740 2749 2752 2755 2758 2759 2760 2761 2761 2762 2763 2763 2761 2760 2759 2757 2756 2754 2753 2753 2750 2752
2730 2730 2731 2730 2733 2740 2747 2751 2754 2755 2755 2757 2758 2758 2758 2757 2757 2754 2753 2750 2749 2747 2744 2742 2743 2742 2741